www.pogodaiklimat.ru

Погода и климат >> Архив погоды >> Боливия >> Rurrenabaque


ПОГОДА в Rurrenabaque

  • Прогноз погоды в Rurrenabaque
  • Монитор погоды в Rurrenabaque
  • Климат города

АРХИВ ПОГОДЫ в Rurrenabaque

Время (UTC), дата Ветер
(напр.,м/с)
 
Видим.   Явления Облачность Т
(С)
Тd
(С)
f
(%)
Тe
(С)
Тes
(С)
Комфортность P
(гПа)
Po
(гПа)
Тmin
(С)
Tmax
(С)
R
(мм)
R24
(мм)
S
(см)
12 18.04 штиль 0 20 км 9/6 900 м
[Sc Ac trans]
+21.4 +21.4 100 +27 +28 душно 1014.1 990.8 +20.4 18
15 18.04 штиль 0 20 км 9/5 450 м
[Sc Ac trans]
+25.6 +23.9 90 +35 +40 очень
душно
1014.9 991.8
18 18.04 В 5 20 км 8/6 500 м
[Cb cap Ci]
+30.0 +25.2 76 +44 +47 опасность
перегрева
1011.6 988.7
21 18.04 штиль 0 20 км 8/5 500 м
[Cu med, cong Ci sp]
+28.7 +24.0 76 +40 +41 очень
душно
1008.7 985.8 +30.5
12 19.04 штиль 0 20 км 8/5 450 м
[Sc Ac trans]
+23.4 +23.4 100 +33 +34 очень
душно
1011.3 988.4 +21.5
15 19.04 СЗ 4 20 км 8/6 450 м
[Sc Ci sp]
+27.8 +25.5 87 +41 +44 опасность
перегрева
1011.5 988.4
18 19.04 С 6 20 км 6/6 480 м
[Cb calv]
+32.0 +25.5 69 +47 +49 опасность
перегрева
1007.5 984.7
21 19.04 С 2 20 км 8/6 600 м
[Cb calv]
+28.8 +25.5 82 +42 +43 опасность
перегрева
1004.9 982.0 +32.2
12 20.04 штиль 0 20 км {дождь} 9/8 240 м
[Frnb Ac trans]
+24.4 +24.4 100 +34 +34 очень
душно
1009.7 986.8 +24.0 9
15 20.04 С 5 20 км 9/6 450 м
[Sc Ci fib]
+29.0 +26.5 86 +44 +47 опасность
перегрева
1010.3 987.5
18 20.04 С 5 20 км 8/6 500 м
[Cb cap Ci ing]
+30.4 +27.1 83 +48 +51 опасность
перегрева
1007.2 984.5
21 20.04 С 4 20 км {ливн. осадки} 6/3 500 м
[Cu med, cong Ci sp]
+29.9 +27.2 85 +47 +48 опасность
перегрева
1004.3 981.5 +31.3
12 21.04 В 4 5000 м 10/10 120 м
[Frnb]
+23.5 +23.5 100 +32 +32 очень
душно
1009.9 987.0 +23.0 5
15 21.04 В 4 2000 м слабая морось 10/10 120 м
[Frnb]
+24.6 +24.6 100 +34 +34 очень
душно
1010.6 987.5
18 21.04 штиль 0 6000 м осадки на расстоянии {морось} 10/9 150 м
[Frnb Ci]
+27.4 +25.9 92 +41 +43 опасность
перегрева
1008.8 985.9 1
21 21.04 штиль 0 20 км 10/6 450 м
[Sc Cs]
+27.8 +25.3 86 +40 +41 очень
душно
1006.0 983.1 +28.0
12 22.04 штиль 0 2000 м слабый дождь {гроза} 10/9 120 м
[Frnb As op]
+23.2 +23.2 100 +33 +33 очень
душно
1012.7 989.8 +23.0 43
15 22.04 Ю 6 20 км слабый дождь 10/8 240 м
[Frnb As op]
+23.4 +23.1 98 +33 +33 очень
душно
1015.5 992.4
18 22.04 ЮВ 7 20 км {дождь} 10/5 300 м
[Sc As op]
+23.9 +22.1 90 +31 +31 очень
душно
1014.3 991.2 6
21 22.04 В 4 20 км 10/6 400 м
[Sc Cs]
+23.0 +21.9 94 +31 +32 очень
душно
1011.3 988.2 +24.0
12 23.04 штиль 0 20 км 9/9 900 м
[Sc]
+21.2 +21.2 100 +27 +27 душно 1015.0 991.7 +21.0 7
15 23.04 штиль 0 20 км 9/6 500 м
[Sc diur, vesp Cs]
+25.1 +23.1 89 +34 +40 очень
душно
1016.1 992.9
18 23.04 штиль 0 8000 м осадки на расстоянии 10/8 480 м
[Cb calv Ac trans]
+26.6 +23.2 82 +36 +37 очень
душно
1013.6 990.5
21 23.04 штиль 0 20 км 8/6 480 м
[Cb calv Ac trans]
+27.0 +24.4 86 +38 +39 очень
душно
1010.1 987.1 +27.5
12 24.04 штиль 0 20 км 8/0 2000 м
[Ac trans]
+22.8 +22.2 96 +31 +32 очень
душно
1011.4 988.4 +21.0
15 24.04 штиль 0 20 км 4/4 500 м
[Cu hum]
+29.0 +24.4 76 +41 +52 опасность
перегрева
1012.0 989.1
18 24.04 С 3 20 км 8/8 500 м
[Cu med, cong]
+30.3 +25.7 76 +45 +47 опасность
перегрева
1009.1 986.3
21 24.04 С 3 20 км {ливн. осадки} 5/5 500 м
[Cb cap]
+28.0 +26.6 92 +43 +44 опасность
перегрева
1006.7 983.8 +30.5

 

Местоположение метеостанции Rurrenabaque (Боливия): широта -14.46 долгота -67.56 высота над уровнем моря 204 м.

В архиве по умолчанию представлена погода в Rurrenabaque за последнюю неделю. Архивные данные за месяц целиком и за предыдущие месяцы, начиная с января 2011 года, Вы можете получить, выбрав интересующий диапазон дат из раскрывающегося списка и нажав кнопку "Ввод!".

Внимание! Время в таблицах - всемирное. Для получения местного времени необходимо прибавить поправку, которая в Rurrenabaque равна -4 ч.

Смотрите также архив погоды в соседних городах и на ближайших метеорологических станциях:

Погода в Reyes (Боливия) (26 км)
Погода в Santa Rosa (Боливия) (78 км)
Погода в San Borja (Боливия) (87 км)
Погода в San Ignacio De Moxo (Боливия) (217 км)
Погода в Ovejuyo (Боливия) (235 км)
Погода в La Paz (Боливия) (238 км)
Погода в Santa Ana (Боливия) (243 км)
Погода в Baures (Боливия) (243 км)
Погода в Puerto Maldonado (Перу) (273 км)
Погода в Trinidad (Боливия) (288 км)

Пояснения к столбцам:

Ветер - указаны скорость ветра в м/с - средняя за 10 мин, порывы в срок и между сроками (в фигурных скобках) и направление, откуда дует ветер: С - северный, СВ - северо-восточный, В - восточный, ЮВ - юго-восточный, Ю - южный, ЮЗ - юго-западный, З - западный, СЗ - северо-западный.
Видимость - горизонтальная дальность видимости в метрах или километрах. При видимости от 1 до 10 км при отсутствии осадков обычно наблюдается дымка, при ухудшении видимости до 1 км и менее - туман. В сухую погоду видимость может ухудшаться дымом, пылью или мглою.
Явления - указаны атмосферные явления, наблюдавшиеся в срок или в последний час перед сроком; фигурными скобками обозначены явления, наблюдавшиеся между сроками (за 1-3 часа до срока); квадратными скобками обозначены град или гололедные отложения с указанием их диаметра в мм.
Облачность - указаны через наклонную черту общая и нижняя облачность в баллах и высота нижней границы облаков в метрах; квадратными скобками обозначены формы облаков: Ci - перистые, Cs - перисто-слоистые, Cc - перисто-кучевые, Ac - высококучевые, As - высокослоистые, Sc - слоисто-кучевые, Ns - слоисто-дождевые, Cu - кучевые, Cb - кучево-дождевые. Подробнее классификацию облаков см. в Атласе облаков (PDF).
T - Температура воздуха - температура, измеренная на высоте 2 м над землей.
Td - Температура точки росы - температура, при понижении до которой содержащийся в воздухе водяной пар достигнет насыщения.
f - Относительная влажность воздуха - влажноcть воздуха, измеренная на высоте 2 м над землей.
Te - Эффективная температура - температура, которую ощущает одетый по сезону человек в тени. Характеристика душности погоды. При расчете учитывается влияние влажности воздуха и скорости ветра на теплоощущения человека.
Tes - Эффективная температура на солнце - температура, которую ощущает человек, с поправкой на солнечный нагрев. Характеристика знойности погоды. Зависит от высоты солнца над горизонтом, облачности и скорости ветра. Ночью, в пасмурную погоду, а также при ветре 12 м/с и более поправка равна нулю.
P - Атмосферное давление - приведенное к уровню моря атмосферное давление.
Po - Атмосферное давление - измеренное на уровне метеостанции атмосферное давление.
Tmin - Минимальная температура - минимум температуры воздуха на высоте 2 м над землей.
Tmax - Максимальная температура - максимум температуры воздуха на высоте 2 м над землей.
R - Количество осадков - Количество выпавших осадков за период времени, мм. При наведении курсора мыши на число - период времени, за который выпало указанное количество осадков.
R24 - Количество осадков - Количество выпавших осадков за 24 часа, мм.
S - Снежный покров - Высота снежного покрова, см. При наведении курсора мыши на число - состояние снежного покрова и степень покрытия местности в баллах.